{"data":{"norad_id":69414,"epoch":"2026-09-20T03:30:31.775040Z","epoch_age_seconds":65019,"freshness":"FRESH","line1":"1 69414U 26125P   26263.14620110  .00000018  00000+0  92246-5 0  9990","line2":"2 69414  88.9905 270.3346 0001867  93.6421 266.4944 13.51035251 14788","mean_motion":13.51035251,"eccentricity":0.0001867,"inclination_deg":88.9905,"raan_deg":270.3346,"arg_perigee_deg":93.6421,"mean_anomaly_deg":266.4944,"bstar":9.2246e-6,"rev_number":1478,"period_min":106.58493173543,"perigee_km":1067.0617740964,"apogee_km":1069.8423304485,"semimajor_km":7446.5890522725,"source":"CELESTRAK","updated_at":"2026-09-20T09:00:24.868282Z"}}